TimePDT,TemperatureF,Dew PointF,Humidity,Sea Level PressureIn,VisibilityMPH,Wind Direction,Wind SpeedMPH,Gust SpeedMPH,PrecipitationIn,Events,Conditions,WindDirDegrees,DateUTC
12:56 AM,48.0,39.9,74,30.00,10.0,Calm,Calm,-,N/A,,Clear,0,2013-07-30 07:56:00
1:56 AM,48.0,39.9,74,30.00,10.0,Calm,Calm,-,N/A,,Scattered Clouds,0,2013-07-30 08:56:00
2:56 AM,48.0,39.9,74,30.01,10.0,Calm,Calm,-,N/A,,Mostly Cloudy,0,2013-07-30 09:56:00
3:56 AM,48.9,39.9,71,30.02,10.0,Calm,Calm,-,N/A,,Partly Cloudy,0,2013-07-30 10:56:00
4:56 AM,46.9,39.9,77,30.04,10.0,Calm,Calm,-,N/A,,Scattered Clouds,0,2013-07-30 11:56:00
5:56 AM,43.0,39.0,86,30.07,10.0,Calm,Calm,-,N/A,,Clear,0,2013-07-30 12:56:00
6:56 AM,48.0,39.9,74,30.09,8.0,Calm,Calm,-,N/A,,Clear,0,2013-07-30 13:56:00
7:56 AM,57.0,43.0,59,30.09,10.0,Calm,Calm,-,N/A,,Clear,0,2013-07-30 14:56:00
8:56 AM,66.0,37.9,36,30.09,10.0,Calm,Calm,-,N/A,,Clear,0,2013-07-30 15:56:00
9:56 AM,69.1,36.0,30,30.10,10.0,Calm,Calm,-,N/A,,Clear,0,2013-07-30 16:56:00
10:56 AM,73.0,34.0,24,30.10,10.0,Calm,Calm,-,N/A,,Clear,0,2013-07-30 17:56:00
11:56 AM,75.0,33.1,22,30.11,10.0,Calm,Calm,-,N/A,,Clear,0,2013-07-30 18:56:00
12:56 PM,78.1,37.0,23,30.10,10.0,Variable,3.5,-,N/A,,Clear,0,2013-07-30 19:56:00
1:56 PM,78.1,35.1,21,30.10,10.0,Variable,3.5,-,N/A,,Clear,0,2013-07-30 20:56:00
2:56 PM,80.1,34.0,19,30.09,10.0,Variable,3.5,-,N/A,,Clear,0,2013-07-30 21:56:00
3:56 PM,81.0,37.9,21,30.08,10.0,Variable,3.5,-,N/A,,Clear,0,2013-07-30 22:56:00
4:56 PM,80.1,37.0,21,30.08,10.0,Variable,3.5,-,N/A,,Clear,0,2013-07-30 23:56:00
5:56 PM,77.0,36.0,23,30.09,10.0,Calm,Calm,-,N/A,,Clear,0,2013-07-31 00:56:00
6:56 PM,78.1,37.9,24,30.08,10.0,Calm,Calm,-,N/A,,Clear,0,2013-07-31 01:56:00
7:56 PM,70.0,42.1,36,30.08,10.0,Calm,Calm,-,N/A,,Clear,0,2013-07-31 02:56:00
8:56 PM,63.0,43.0,48,30.09,10.0,Calm,Calm,-,N/A,,Clear,0,2013-07-31 03:56:00
9:56 PM,57.0,45.0,64,30.12,10.0,Calm,Calm,-,N/A,,Clear,0,2013-07-31 04:56:00
10:56 PM,55.9,44.1,64,30.12,10.0,Calm,Calm,-,N/A,,Clear,0,2013-07-31 05:56:00
11:56 PM,54.0,44.1,69,30.10,10.0,Calm,Calm,-,N/A,,Clear,0,2013-07-31 06:56:00